Tracking 19795 objects as of 17-Jul-2019
HD Live streaming from Space Station
objects crossing your sky now

NOAA 16 DEB

Track NOAA 16 DEB now!
10-day predictions


NORAD ID: 41301
Int'l Code: 2000-055HD
Perigee: 853.0 km
Apogee: 893.3 km
Inclination: 98.8 °
Period: 102.3 minutes
Semi major axis: 7244 km
RCS: Unknown
Launch date: September 21, 2000
Source: United States (US)
Launch site: AIR FORCE WESTERN TEST RANGE (AFWTR)

Note: This is SATELLITE DEBRIS
aabbcc
Your satellite tracking list
Your tracking list is empty




NASA's NSSDC Master Catalog

Two Line Element Set (TLE):
1 41301U 00055HD  19198.12039143  .00000292  00000-0  19633-3 0  9998
2 41301  98.8016 254.5090 0027796 173.7055 186.4469 14.08058989182648
Source of the keplerian elements: AFSPC